Location: Savageville
(44.2117°N, 71.8937°W)
Time: 04:34:27
(UTC+00:00)

BlueWalker 3 - Visible Passes

Search period start: 07 October 2024 00:00
Search period end: 17 October 2024 00:00
Orbit: 473 x 485 km, 53.2° (Epoch: 06 October)

Date Brightness Start Highest point End Pass type
(mag) Time Alt. Az. Time Alt. Az. Time Alt. Az.
07 Oct 2.1 08:49:56 61° ESE 08:49:56 61° ESE 08:53:25 10° ENE visible
08 Oct 3.7 08:23:05 30° ENE 08:23:05 30° ENE 08:25:10 10° ENE visible
08 Oct 2.9 09:57:18 16° WNW 09:59:41 32° NNW 10:03:03 10° NE visible
09 Oct 4.9 07:56:07 15° ENE 07:56:07 15° ENE 07:56:52 10° ENE visible
09 Oct 2.8 09:30:19 28° WNW 09:31:23 34° NNW 09:34:47 10° NE visible
10 Oct 2.8 09:03:16 36° NNW 09:03:16 36° NNW 09:06:30 10° NE visible
11 Oct 3.7 08:36:08 26° NNE 08:36:08 26° NNE 08:38:10 10° NE visible
11 Oct 3.7 10:10:33 10° NW 10:13:22 20° N 10:16:12 10° NE visible
12 Oct 4.7 08:08:56 16° NE 08:08:56 16° NE 08:09:47 10° NE visible
12 Oct 3.7 09:43:07 15° NW 09:44:55 20° N 09:47:46 10° NE visible
13 Oct 3.6 09:15:51 20° NNW 09:16:26 21° N 09:19:18 10° NE visible
14 Oct 3.9 08:48:33 20° N 08:48:33 20° N 08:50:49 10° NE visible
14 Oct 3.6 10:23:45 10° NW 10:26:48 23° NNE 10:29:50 10° ENE visible
15 Oct 4.6 08:21:13 15° NNE 08:21:13 15° NNE 08:22:18 10° NE visible
15 Oct 3.7 09:55:24 11° NW 09:58:14 23° NNE 10:01:13 10° ENE visible
16 Oct 3.8 09:28:03 17° NNW 09:29:38 22° N 09:32:36 10° ENE visible
